Location: Gebenbach
(49.5378°N, 11.8735°E)
Time: 02:44:36
(UTC+00:00)

Cosmos 1939 Rocket - Pass Details

Date: 29 October 2020
Orbit: 532 x 584 km, 97.4° (Epoch: 27 November)

Event Time Altitude Azimuth Distance (km) Brightness Sun altitude
Rises 16:55:14 0° 155° (SSE) 2,724 6.2 -10.3°
Reaches altitude 10° 16:57:23 10° 152° (SSE) 1,826 5.3 -10.6°
Maximum altitude 17:01:16 58° 73° (ENE) 641 2.8 -11.2°
Drops below altitude 10° 17:05:07 10° 354° (N) 1,814 5.5 -11.9°
Sets 17:07:15 0° 351° (N) 2,706 6.4 -12.2°
